DW7210 Weather Reports


time (UTC)temp
F
wind
direction
speed
knots
gust
knots
rain 1hr
in
rain 24hr
in
rain mn
in
humidity
%
barometer
mb
20260506193417 72 293 3.5 6.1 0.00 0.00 0.00 20 1015.8
20260506192417 73 225 2.6 3.5 0.00 0.00 0.00 21 1016.2
20260506191417 73 293 5.2 11.3 0.00 0.00 0.00 19 1016.7
20260506190437 71 248 3.5 12.2 0.00 0.00 0.00 20 1016.4
20260506185416 72 293 6.1 11.3 0.00 0.00 0.00 20 1016.5
20260506184416 72 225 4.3 11.3 0.00 0.00 0.00 22 1016.9
20260506183437 71 270 2.6 5.2 0.00 0.00 0.00 22 1017.1
20260506182416 72 225 4.3 9.6 0.00 0.00 0.00 21 1017.1
20260506181417 71 225 6.1 9.6 0.00 0.00 0.00 23 1017.2
20260506180416 70 315 3.5 5.2 0.00 0.00 0.00 24 1017.3
20260506175416 70 293 4.3 7.8 0.00 0.00 0.00 22 1017.1
20260506174417 70 248 5.2 7.8 0.00 0.00 0.00 22 1017.5
20260506173416 70 293 3.5 5.2 0.00 0.00 0.00 25 1017.7
20260506172416 69 293 1.7 3.5 0.00 0.00 0.00 26 1017.3
20260506171416 69 315 5.2 11.3 0.00 0.00 0.00 27 1017.7
20260506170416 68 293 5.2 11.3 0.00 0.00 0.00 27 1017.7
20260506165416 67 315 7.8 9.6 0.00 0.00 0.00 28 1017.5
20260506164417 66 293 1.7 5.2 0.00 0.00 0.00 31 1017.6
20260506163417 66 315 2.6 5.2 0.00 0.00 0.00 32 1017.6
20260506162416 65 293 5.2 8.7 0.00 0.00 0.00 32 1017.3
20260506161416 66 315 8.7 11.3 0.00 0.00 0.00 32 1017.4
20260506160436 65 248 1.7 4.3 0.00 0.00 0.00 34 1017.5
20260506155457 65 293 5.2 7.0 0.00 0.00 0.00 33 1017.6
20260506154436 64 248 3.5 6.1 0.00 0.00 0.00 35 1017.6
20260506153416 64 315 5.2 8.7 0.00 0.00 0.00 35 1017.6
20260506152416 64 0.0 0.0 0.00 0.00 0.00 36 1017.2
20260506151416 63 315 4.3 7.0 0.00 0.00 0.00 35 1017.4
20260506150416 63 315 5.2 7.0 0.00 0.00 0.00 35 1017.4
20260506145416 62 315 2.6 5.2 0.00 0.00 0.00 36 1017.1
20260506144416 62 315 2.6 5.2 0.00 0.00 0.00 37 1017.5
20260506143416 62 293 1.7 5.2 0.00 0.00 0.00 38 1017.5
20260506142416 61 0.0 0.0 0.00 0.00 0.00 40 1017.1
20260506141417 61 0.0 0.0 0.00 0.00 0.00 41 1017.2
20260506140416 60 293 2.6 4.3 0.00 0.00 0.00 40 1017.1
20260506135416 60 23 1.7 3.5 0.00 0.00 0.00 41 1016.9
20260506134436 59 0.0 0.0 0.00 0.00 0.00 43 1016.9
20260506133416 58 0.0 0.0 0.00 0.00 0.00 44 1016.7
20260506132416 57 0.0 0.0 0.00 0.00 0.00 45 1016.3
20260506131416 55 23 1.7 2.6 0.00 0.00 0.00 47 1016.0
20260506130416 55 0.0 0.9 0.00 0.00 0.00 47 1015.8
20260506125436 55 0.0 0.0 0.00 0.00 0.00 47 1015.7
20260506124416 55 0.0 1.7 0.00 0.00 0.00 47 1015.9
20260506123416 55 23 0.9 2.6 0.00 0.00 0.00 47 1015.7
20260506122416 55 0.0 0.9 0.00 0.00 0.00 46 1015.6
20260506121436 56 0.0 0.0 0.00 0.00 0.00 46 1015.4
20260506120437 56 0.0 0.0 0.00 0.00 0.00 45 1015.3
20260506115416 56 23 0.9 3.5 0.00 0.00 0.00 45 1015.3
20260506114416 56 23 2.6 3.5 0.00 0.00 0.00 46 1015.1
20260506113416 56 23 2.6 4.3 0.00 0.00 0.00 46 1015.2
20260506112436 56 0.0 0.9 0.00 0.00 0.00 45 1015.0
20260506111416 56 338 0.9 2.6 0.00 0.00 0.00 45 1014.9
20260506110436 56 0.0 2.6 0.00 0.00 0.00 45 1014.7
20260506105417 57 0 1.7 3.5 0.00 0.00 0.00 44 1014.6
20260506104416 57 0 0.9 2.6 0.00 0.00 0.00 44 1014.5
20260506103436 57 45 2.6 4.3 0.00 0.00 0.00 43 1014.5
20260506102416 57 0 1.7 3.5 0.00 0.00 0.00 43 1014.4
20260506101416 57 45 0.9 2.6 0.00 0.00 0.00 43 1014.6
20260506100416 58 0 2.6 4.3 0.00 0.00 0.00 42 1014.6
20260506095416 58 23 0.9 2.6 0.00 0.00 0.00 42 1014.6
20260506094436 58 23 1.7 2.6 0.00 0.00 0.00 41 1014.4
20260506093416 59 0 0.9 2.6 0.00 0.00 0.00 40 1014.4
20260506092416 60 315 4.3 7.8 0.00 0.00 0.00 39 1014.6
20260506091416 60 293 3.5 4.3 0.00 0.00 0.00 38 1014.1
20260506090416 61 315 2.6 4.3 0.00 0.00 0.00 38 1014.0
20260506085416 61 293 4.3 7.8 0.00 0.00 0.00 37 1014.2
20260506084416 61 315 5.2 10.4 0.00 0.00 0.00 36 1013.9
20260506083436 62 293 3.5 4.3 0.00 0.00 0.00 35 1013.9
20260506082436 62 293 3.5 6.1 0.00 0.00 0.00 33 1014.2
20260506081416 62 315 5.2 8.7 0.00 0.00 0.00 31 1014.2
20260506080416 63 315 1.7 4.3 0.00 0.00 0.00 30 1014.3
20260506073416 62 0.0 0.0 0.00 0.00 0.00 30 1014.3
20260506072416 61 0.0 0.0 0.00 0.00 0.00 30 1013.8
20260506071416 62 0.0 0.0 0.00 0.00 0.00 29 1013.7
20260506070456 63 0.0 0.0 0.00 0.00 0.00 29 1014.1
20260506062416 65 225 2.6 4.3 0.00 0.00 0.00 26 1014.1
20260506061416 65 203 3.5 6.1 0.00 0.00 0.00 26 1014.3
20260506060416 65 225 3.5 6.1 0.00 0.00 0.00 25 1014.3
20260506051416 67 225 1.7 3.5 0.00 0.00 0.00 24 1013.3
20260506050416 68 225 2.6 7.8 0.00 0.00 0.00 24 1013.3
20260506044416 68 225 3.5 8.7 0.00 0.00 0.00 22 1013.5
20260506043416 68 225 4.3 8.7 0.00 0.00 0.00 22 1013.3
20260506042436 68 248 4.3 9.6 0.00 0.00 0.00 21 1013.3
20260506041416 68 225 3.5 7.8 0.00 0.00 0.00 21 1012.4
20260506040416 69 203 1.7 5.2 0.00 0.00 0.00 20 1012.6
20260506035417 69 0.0 0.0 0.00 0.00 0.00 19 1012.3
20260506034416 69 293 2.6 5.2 0.00 0.00 0.00 19 1011.9
20260506033416 70 293 3.5 8.7 0.00 0.00 0.00 19 1012.0
20260506032416 70 248 3.5 7.8 0.00 0.00 0.00 20 1011.7
20260506031416 71 225 4.3 7.8 0.00 0.00 0.00 20 1011.4
20260506030436 71 293 4.3 10.4 0.00 0.00 0.00 20 1011.2
20260506025416 71 225 5.2 10.4 0.00 0.00 0.00 20 1011.1
20260506024416 71 248 0.9 2.6 0.00 0.00 0.00 20 1011.0
20260506023436 72 225 2.6 16.5 0.00 0.00 0.00 21 1010.8
20260506022416 72 225 3.5 7.0 0.00 0.00 0.00 22 1010.7
20260506021416 72 225 4.3 9.6 0.00 0.00 0.00 23 1010.5
20260506020436 72 248 3.5 8.7 0.00 0.00 0.00 22 1010.4
20260506015416 73 248 4.3 10.4 0.00 0.00 0.00 22 1010.3
20260506014416 73 248 5.2 11.3 0.00 0.00 0.00 21 1010.1
20260506013416 73 225 5.2 9.6 0.00 0.00 0.00 21 1010.0
20260506012416 74 248 0.9 4.3 0.00 0.00 0.00 21 1010.1
20260506011416 74 225 2.6 5.2 0.00 0.00 0.00 21 1010.2
20260506010416 74 248 3.5 6.1 0.00 0.00 0.00 22 1010.0
20260506005416 74 293 3.5 5.2 0.00 0.00 0.00 23 1010.1
20260506004416 75 225 5.2 13.0 0.00 0.00 0.00 23 1010.0
20260506003436 75 270 4.3 7.8 0.00 0.00 0.00 24 1010.0
20260506002436 75 293 5.2 13.9 0.00 0.00 0.00 24 1010.0
20260506001416 75 248 4.3 8.7 0.00 0.00 0.00 24 1010.4
20260506000416 75 293 4.3 8.7 0.00 0.00 0.00 26 1010.2
20260505235416 75 270 4.3 8.7 0.00 0.00 0.00 27 1010.3
20260505234416 75 270 1.7 4.3 0.00 0.00 0.00 28 1010.2
20260505233416 75 225 1.7 6.1 0.00 0.00 0.00 28 1010.3
20260505232416 75 293 4.3 10.4 0.00 0.00 0.00 28 1010.2
20260505231416 75 315 3.5 6.1 0.00 0.00 0.00 28 1010.2
20260505230416 75 248 2.6 6.1 0.00 0.00 0.00 30 1010.2
20260505225416 74 293 1.7 3.5 0.00 0.00 0.00 31 1010.5
20260505224416 75 225 3.5 8.7 0.00 0.00 0.00 31 1010.9
20260505223416 74 225 2.6 6.1 0.00 0.00 0.00 33 1011.0
20260505222416 74 293 4.3 7.0 0.00 0.00 0.00 33 1010.9
20260505221416 74 293 3.5 8.7 0.00 0.00 0.00 33 1011.3
20260505220416 74 315 6.1 10.4 0.00 0.00 0.00 33 1011.4
20260505215416 75 293 9.6 13.9 0.00 0.00 0.00 32 1011.2
20260505214416 76 293 2.6 4.3 0.00 0.00 0.00 32 1011.8
20260505213416 75 293 8.7 16.5 0.00 0.00 0.00 32 1012.1
20260505212416 74 293 6.1 15.6 0.00 0.00 0.00 33 1012.1
20260505211436 75 315 9.6 15.6 0.00 0.00 0.00 32 1012.3
20260505210416 73 315 7.0 13.0 0.00 0.00 0.00 36 1012.3
20260505205416 72 338 5.2 7.0 0.00 0.00 0.00 37 1012.4
20260505204416 72 293 5.2 9.6 0.00 0.00 0.00 36 1012.3
20260505203416 73 225 3.5 6.1 0.00 0.00 0.00 36 1012.5
20260505202416 73 293 3.5 5.2 0.00 0.00 0.00 36 1012.7
20260505201416 73 293 4.3 6.1 0.00 0.00 0.00 36 1013.0
20260505200416 71 315 3.5 6.1 0.00 0.00 0.00 38 1012.7
20260505195416 72 293 5.2 9.6 0.00 0.00 0.00 37 1013.3
20260505194416 71 293 3.5 7.8 0.00 0.00 0.00 39 1013.6